Terminal Aerodrome Forecast
Issued by NWS Bismarck, ND

Home | Current Version | Previous Version | Graphics & Text | Print | Product List | Glossary On
Versions: 1 2 3 4 5 6 7 8 9 10 11 12 13 14 15 16 17
000
FTUS43 KBIS 032300
TAFBIS
TAF
KBIS 032327Z 0400/0424 32014KT P6SM BKN035
     FM040800 31014KT P6SM -SN OVC025
     FM041400 31015G21KT P6SM FEW250=

USA.gov is the U.S. government's official web portal to all federal, state and local government web resources and services.